When you browse on this site, cookies collect data to enhance your experience and personalize the content and advertising you see.
Visit our Privacy Policy to learn more. By continuing to use the site, you agree to this use of cookies and data.
  • In Germany
  • List of Countries
  • For 7 days
  • Water Temperature
  • Weather Map
  • Weather Widgets
  • user-avatar
    Login

    Hourly Weather Novaya Bashkarka

    Today, 20 January, Monday

    Time Temperature Precipitation Wind Pressure Humidity
    00:00 -8°C° 0.2 mm 2 mps 742 mmHg 95%
    01:00 -8°C° 0.2 mm 2 mps 741 mmHg 96%
    02:00 -8°C° 0.2 mm 2 mps 741 mmHg 96%
    03:00 -8°C° 0.2 mm 2 mps 741 mmHg 96%
    04:00 -9°C° 0 mm 2 mps 741 mmHg 95%
    05:00 -9°C° 0.3 mm 2 mps 740 mmHg 95%
    06:00 -10°C° 0.3 mm 2 mps 740 mmHg 95%
    07:00 -12°C° 0.3 mm 2 mps 740 mmHg 95%
    08:00 -12°C° 0.3 mm 2 mps 740 mmHg 94%
    09:00 -12°C° 0.3 mm 2 mps 740 mmHg 94%
    10:00 -13°C° 0 mm 2 mps 740 mmHg 94%
    11:00 -13°C° 0.2 mm 2 mps 740 mmHg 93%
    12:00 -13°C° 0.2 mm 2 mps 740 mmHg 93%
    13:00 -13°C° 0.2 mm 2 mps 740 mmHg 92%
    14:00 -13°C° 0 mm 2 mps 740 mmHg 93%
    15:00 -13°C° 0 mm 2 mps 740 mmHg 94%
    16:00 -12°C° 0 mm 1 mps 741 mmHg 95%
    17:00 -13°C° 0 mm 1 mps 740 mmHg 96%
    18:00 -15°C° 0 mm 2 mps 740 mmHg 96%
    19:00 -16°C° 0 mm 2 mps 740 mmHg 97%
    20:00 -15°C° 0 mm 1 mps 740 mmHg 97%
    21:00 -16°C° 0 mm 1 mps 740 mmHg 98%
    22:00 -17°C° 0 mm 1 mps 740 mmHg 98%
    23:00 -17°C° 0 mm 1 mps 740 mmHg 98%

    Tomorrow, 21 January, Tuesday

    Time Temperature Precipitation Wind Pressure Humidity
    00:00 -18°C° 0 mm 1 mps 740 mmHg 99%
    01:00 -18°C° 0 mm 1 mps 739 mmHg 99%
    02:00 -19°C° 0 mm 1 mps 739 mmHg 99%
    03:00 -19°C° 0 mm 1 mps 739 mmHg 99%
    04:00 -19°C° 0 mm 1 mps 739 mmHg 99%
    05:00 -19°C° 0 mm 1 mps 739 mmHg 99%
    06:00 -19°C° 0 mm 1 mps 739 mmHg 99%
    07:00 -19°C° 0 mm 1 mps 738 mmHg 99%
    08:00 -20°C° 0 mm 2 mps 738 mmHg 98%
    09:00 -19°C° 0 mm 2 mps 738 mmHg 97%
    10:00 -19°C° 0 mm 2 mps 738 mmHg 96%
    11:00 -17°C° 0 mm 2 mps 737 mmHg 95%
    12:00 -17°C° 0 mm 3 mps 736 mmHg 93%
    13:00 -15°C° 0 mm 3 mps 736 mmHg 92%
    14:00 -16°C° 0 mm 3 mps 735 mmHg 93%
    15:00 -16°C° 0 mm 3 mps 735 mmHg 94%
    16:00 -15°C° 0 mm 2 mps 735 mmHg 95%
    17:00 -16°C° 0 mm 3 mps 734 mmHg 95%
    18:00 -16°C° 0 mm 3 mps 733 mmHg 96%
    19:00 -16°C° 0 mm 3 mps 732 mmHg 96%
    20:00 -15°C° 0 mm 3 mps 731 mmHg 95%
    21:00 -15°C° 0 mm 4 mps 731 mmHg 95%
    22:00 -14°C° 0 mm 4 mps 730 mmHg 94%
    23:00 -14°C° 0 mm 4 mps 729 mmHg 93%

    Day after tomorrow, 22 January, Wednesday

    Time Temperature Precipitation Wind Pressure Humidity
    00:00 -12°C° 0 mm 4 mps 728 mmHg 93%
    01:00 -13°C° 0 mm 5 mps 727 mmHg 92%
    02:00 -12°C° 0 mm 5 mps 727 mmHg 91%
    03:00 -12°C° 0 mm 5 mps 726 mmHg 89%
    04:00 -11°C° 0 mm 5 mps 725 mmHg 88%
    05:00 -11°C° 0.1 mm 5 mps 724 mmHg 89%
    06:00 -10°C° 0.1 mm 5 mps 723 mmHg 90%
    07:00 -10°C° 0.1 mm 5 mps 722 mmHg 91%
    08:00 -10°C° 0.1 mm 5 mps 722 mmHg 90%
    09:00 -10°C° 0.1 mm 5 mps 721 mmHg 90%
    10:00 -8°C° 0.1 mm 5 mps 721 mmHg 89%
    11:00 -8°C° 0.1 mm 5 mps 720 mmHg 90%
    12:00 -8°C° 0.1 mm 5 mps 720 mmHg 90%
    13:00 -7°C° 0.1 mm 5 mps 719 mmHg 91%
    14:00 -7°C° 0.2 mm 4 mps 719 mmHg 92%
    15:00 -7°C° 0.2 mm 4 mps 718 mmHg 93%
    16:00 -7°C° 0.2 mm 4 mps 718 mmHg 93%
    17:00 -8°C° 0.1 mm 4 mps 717 mmHg 93%
    18:00 -8°C° 0.1 mm 4 mps 717 mmHg 93%
    19:00 -7°C° 0.1 mm 3 mps 716 mmHg 93%
    20:00 -7°C° 0.1 mm 3 mps 716 mmHg 94%
    21:00 -7°C° 0.1 mm 3 mps 715 mmHg 94%
    22:00 -7°C° 0.1 mm 3 mps 715 mmHg 95%
    23:00 -7°C° 0.4 mm 3 mps 714 mmHg 95%

    23 January, Thursday

    Time Temperature Precipitation Wind Pressure Humidity
    00:00 -8°C° 0.4 mm 4 mps 714 mmHg 95%
    01:00 -8°C° 0.4 mm 4 mps 714 mmHg 95%
    02:00 -8°C° 0.1 mm 4 mps 714 mmHg 91%
    03:00 -10°C° 0.1 mm 5 mps 714 mmHg 88%
    04:00 -10°C° 0.1 mm 5 mps 714 mmHg 84%
    05:00 -10°C° 0 mm 5 mps 714 mmHg 84%
    06:00 -11°C° 0 mm 6 mps 714 mmHg 83%
    07:00 -11°C° 0 mm 6 mps 715 mmHg 83%
    08:00 -11°C° 0 mm 6 mps 715 mmHg 83%
    09:00 -10°C° 0 mm 6 mps 716 mmHg 83%
    10:00 -10°C° 0 mm 6 mps 717 mmHg 83%
    11:00 -9°C° 0 mm 6 mps 717 mmHg 82%
    12:00 -9°C° 0 mm 7 mps 718 mmHg 81%
    13:00 -9°C° 0 mm 7 mps 719 mmHg 80%
    14:00 -10°C° 0 mm 6 mps 719 mmHg 81%
    15:00 -10°C° 0 mm 6 mps 720 mmHg 82%
    16:00 -11°C° 0 mm 5 mps 721 mmHg 84%
    17:00 -12°C° 0 mm 5 mps 721 mmHg 85%
    18:00 -13°C° 0 mm 5 mps 722 mmHg 86%
    19:00 -13°C° 0 mm 5 mps 722 mmHg 87%
    20:00 -14°C° 0 mm 4 mps 723 mmHg 88%
    21:00 -14°C° 0 mm 4 mps 723 mmHg 89%
    22:00 -14°C° 0 mm 4 mps 724 mmHg 89%
    23:00 -15°C° 0 mm 4 mps 724 mmHg 89%

    24 January, Friday

    Time Temperature Precipitation Wind Pressure Humidity
    00:00 -15°C° 0 mm 4 mps 725 mmHg 89%
    01:00 -15°C° 0 mm 4 mps 725 mmHg 89%
    02:00 -15°C° 0 mm 4 mps 726 mmHg 89%
    03:00 -15°C° 0 mm 4 mps 726 mmHg 89%
    04:00 -15°C° 0 mm 4 mps 726 mmHg 89%
    05:00 -15°C° 0 mm 4 mps 727 mmHg 89%
    06:00 -15°C° 0 mm 4 mps 727 mmHg 89%
    07:00 -15°C° 0 mm 4 mps 727 mmHg 89%
    08:00 -15°C° 0 mm 4 mps 728 mmHg 88%
    09:00 -15°C° 0 mm 4 mps 729 mmHg 88%
    10:00 -15°C° 0 mm 4 mps 729 mmHg 88%
    11:00 -15°C° 0 mm 4 mps 730 mmHg 87%
    12:00 -15°C° 0 mm 4 mps 730 mmHg 86%
    13:00 -14°C° 0 mm 4 mps 730 mmHg 85%
    14:00 -15°C° 0 mm 4 mps 731 mmHg 86%
    15:00 -15°C° 0 mm 4 mps 731 mmHg 87%
    16:00 -16°C° 0 mm 4 mps 731 mmHg 87%
    17:00 -17°C° 0 mm 4 mps 732 mmHg 88%
    18:00 -18°C° 0 mm 4 mps 732 mmHg 89%
    19:00 -19°C° 0 mm 4 mps 732 mmHg 90%
    20:00 -19°C° 0 mm 4 mps 733 mmHg 91%
    21:00 -19°C° 0 mm 3 mps 733 mmHg 91%
    22:00 -19°C° 0 mm 3 mps 733 mmHg 92%
    23:00 -21°C° 0 mm 3 mps 733 mmHg 92%

    25 January, Saturday

    Time Temperature Precipitation Wind Pressure Humidity
    00:00 -21°C° 0 mm 3 mps 734 mmHg 92%
    01:00 -21°C° 0 mm 3 mps 734 mmHg 93%
    02:00 -21°C° 0 mm 3 mps 734 mmHg 92%
    03:00 -22°C° 0 mm 4 mps 733 mmHg 92%
    04:00 -22°C° 0 mm 4 mps 733 mmHg 92%
    05:00 -20°C° 0 mm 4 mps 733 mmHg 91%
    06:00 -20°C° 0 mm 4 mps 733 mmHg 90%
    07:00 -19°C° 0 mm 4 mps 732 mmHg 90%
    08:00 -18°C° 0 mm 4 mps 732 mmHg 88%
    09:00 -18°C° 0 mm 5 mps 731 mmHg 87%
    10:00 -17°C° 0 mm 5 mps 731 mmHg 85%
    11:00 -15°C° 0 mm 5 mps 731 mmHg 85%
    12:00 -15°C° 0 mm 5 mps 730 mmHg 85%
    13:00 -14°C° 0 mm 5 mps 730 mmHg 86%
    14:00 -14°C° 0 mm 4 mps 730 mmHg 87%
    15:00 -15°C° 0 mm 4 mps 729 mmHg 88%
    16:00 -14°C° 0 mm 3 mps 729 mmHg 89%
    17:00 -15°C° 0 mm 3 mps 729 mmHg 89%
    18:00 -15°C° 0 mm 3 mps 729 mmHg 89%
    19:00 -16°C° 0 mm 3 mps 729 mmHg 89%
    20:00 -15°C° 0 mm 3 mps 729 mmHg 89%
    21:00 -15°C° 0 mm 3 mps 728 mmHg 90%
    22:00 -15°C° 0 mm 3 mps 728 mmHg 90%
    23:00 -15°C° 0 mm 4 mps 728 mmHg 90%
    Show more